Location: Newark
(46.7636°N, 1.8358°W)
Time: 10:46:13
(UTC+00:00)

Vanguard 2 Rocket - Pass Details

Date: 13 October 2019
Orbit: 554 x 3326 km, 32.9° (Epoch: 13 November)

Event Time Altitude Azimuth Distance (km) Brightness Sun altitude
Rises 17:25:29 0° 273° (W) 6,302 13.2 -0.9°
Reaches altitude 10° 17:32:14 10° 257° (WSW) 4,682 12.7 -2.1°
Maximum altitude 17:38:41 16° 225° (SW) 3,534 10.8 -3.2°
Drops below altitude 10° 17:43:40 10° 191° (S) 3,430 10.1 -4.0°
Sets 17:47:26 0° 169° (S) 3,952 10.1 -4.7°
